sat.trackr.live / text

‹ back to catalog

KINEIS-5C

NORAD 62081 · 2024-219A

PAYLOAD ACTIVE UNKNOWN

§ Identity

Operator
Country
FR
Launch date
2024-11-25
Launch site
RLLB
Launch vehicle
Mass (kg)
RCS (m²)

External: N2YO · Heavens-Above · Gunter

§ Orbital elements

Epoch: 2026-05-25T03:44:48.899328Z

Period
97.81 min
Inclination
97.9020°
Eccentricity
0.0004154
Mean motion
14.72291751 rev/d
Perigee alt
650.8 km
Apogee alt
656.7 km
Semi-major
7,031.9 km
B*
8.7945e-5
RAAN
304.6522°
Arg perigee
17.9304°
Mean anomaly
342.2049°
Rev number
8,036

§ Raw data

KINEIS-5C1 62081U 24219A   26145.15612152  .00000507  00000+0  87945-4 0  99942 62081  97.9020 304.6522 0004154  17.9304 342.2049 14.72291751 80366

JSON: /api/v1/satellites/62081 · /tle

For live sub-satellite position, see the globe view (requires WebGL).

§ Visibility from observer

Set your observer location to see the next 7 days of passes ≥ 10°. The values pass through the URL so the page stays shareable.

No JS? Fill the form by hand. The geolocation button needs JavaScript.

§ Radio — SatNOGS DB

ModeDescriptionDownlinkUplink
BPSK S-band telemetry 2.261 GHz
FM Telemetry 400.638 MHz

2 transmitters · refreshed weekly from db.satnogs.org